{"data":{"norad_id":58375,"intl_designator":"2023-178B","name":"STARLINK-30894","alt_names":[],"object_type":"PAYLOAD","status":"ACTIVE","operator":null,"country":"US","launch_date":"2023-11-20","launch_site_code":"AFWTR","launch_vehicle":null,"mission":null,"orbit_class":"UNKNOWN","rcs_meters":null,"size_class":null,"mass_kg":null,"dimensions":null,"purposes":["comms"],"wikipedia_slug":null,"has_3d_model":false,"image_url":null,"decayed_at":null,"tle_current":{"epoch":"2026-05-24T22:25:55.886304Z","epoch_age_seconds":87498,"freshness":"FRESH","line1":"1 58375U 23178B   26144.93467461  .00004513  00000+0  14469-3 0  9995","line2":"2 58375  53.1619   6.3039 0001175  97.8492 262.2644 15.34387170141505","mean_motion":15.3438717,"eccentricity":0.0001175,"inclination_deg":53.1619,"raan_deg":6.3039,"arg_perigee_deg":97.8492,"mean_anomaly_deg":262.2644,"bstar":0.00014469,"rev_number":14150,"period_min":93.848542802922,"perigee_km":461.93757072768,"apogee_km":463.54517714556,"semimajor_km":6840.8783739366,"source":"CELESTRAK","updated_at":"2026-05-25T13:38:18.611624Z"}}}